When you browse on this site, cookies collect data to enhance your experience and personalize the content and advertising you see.
Visit our Privacy Policy to learn more. By continuing to use the site, you agree to this use of cookies and data.
  • în România
  • Lista ţărilor
  • Pe 7 zile
  • Temperatura apei
  • Hartă satelitară
  • Meteo pe hartă
  • Widget-uri
  • user-avatar
    Intrare

    Meteo pe oră la Buzău

    Astăzi, 19 Februarie, Marţi

    Timp Temperatura Precipitaţii Vânt Presiune Umiditate
    00:00 +7°C° 0 mm 1 m/s 760 mmHg 71%
    01:00 +7°C° 0 mm 1 m/s 760 mmHg 74%
    02:00 +6°C° 0 mm 1 m/s 760 mmHg 76%
    03:00 +6°C° 0 mm 1 m/s 759 mmHg 78%
    04:00 +6°C° 0 mm 1 m/s 759 mmHg 79%
    05:00 +4°C° 0 mm 0 m/s 759 mmHg 81%
    06:00 +4°C° 0 mm 0 m/s 759 mmHg 81%
    07:00 +4°C° 0 mm 0 m/s 759 mmHg 81%
    08:00 +4°C° 0 mm 0 m/s 759 mmHg 81%
    09:00 +7°C° 0 mm 1 m/s 759 mmHg 75%
    10:00 +8°C° 0 mm 1 m/s 759 mmHg 69%
    11:00 +10°C° 0 mm 1 m/s 759 mmHg 63%
    12:00 +10°C° 0 mm 2 m/s 758 mmHg 59%
    13:00 +12°C° 0 mm 2 m/s 758 mmHg 55%
    14:00 +12°C° 0 mm 3 m/s 757 mmHg 51%
    15:00 +13°C° 0 mm 2 m/s 757 mmHg 52%
    16:00 +13°C° 0 mm 2 m/s 757 mmHg 53%
    17:00 +13°C° 0 mm 2 m/s 757 mmHg 54%
    18:00 +12°C° 0 mm 2 m/s 757 mmHg 58%
    19:00 +10°C° 0 mm 2 m/s 757 mmHg 62%
    20:00 +9°C° 0 mm 1 m/s 757 mmHg 66%
    21:00 +8°C° 0 mm 2 m/s 756 mmHg 68%
    22:00 +7°C° 0 mm 2 m/s 756 mmHg 71%
    23:00 +7°C° 0 mm 2 m/s 756 mmHg 73%

    Mâine, 20 Februarie, Miercuri

    Timp Temperatura Precipitaţii Vânt Presiune Umiditate
    00:00 +7°C° 0 mm 2 m/s 756 mmHg 74%
    01:00 +6°C° 0 mm 2 m/s 756 mmHg 75%
    02:00 +6°C° 0 mm 2 m/s 756 mmHg 76%
    03:00 +6°C° 0 mm 2 m/s 755 mmHg 75%
    04:00 +5°C° 0 mm 2 m/s 755 mmHg 74%
    05:00 +4°C° 0 mm 3 m/s 754 mmHg 73%
    06:00 +4°C° 0 mm 3 m/s 754 mmHg 71%
    07:00 +5°C° 0 mm 2 m/s 754 mmHg 68%
    08:00 +5°C° 0 mm 2 m/s 755 mmHg 66%
    09:00 +7°C° 0 mm 2 m/s 754 mmHg 58%
    10:00 +10°C° 0 mm 2 m/s 754 mmHg 51%
    11:00 +13°C° 0 mm 2 m/s 754 mmHg 43%
    12:00 +14°C° 0 mm 1 m/s 754 mmHg 39%
    13:00 +15°C° 0 mm 1 m/s 754 mmHg 36%
    14:00 +16°C° 0 mm 1 m/s 754 mmHg 33%
    15:00 +15°C° 0 mm 2 m/s 754 mmHg 36%
    16:00 +14°C° 0 mm 3 m/s 754 mmHg 40%
    17:00 +13°C° 0 mm 4 m/s 754 mmHg 43%
    18:00 +12°C° 0 mm 4 m/s 755 mmHg 48%
    19:00 +10°C° 0 mm 4 m/s 755 mmHg 53%
    20:00 +8°C° 0 mm 4 m/s 756 mmHg 57%
    21:00 +8°C° 0 mm 4 m/s 757 mmHg 59%
    22:00 +7°C° 0 mm 4 m/s 757 mmHg 60%
    23:00 +8°C° 0 mm 3 m/s 757 mmHg 62%

    Poimâine, 21 Februarie, Joi

    Timp Temperatura Precipitaţii Vânt Presiune Umiditate
    00:00 +8°C° 0 mm 3 m/s 758 mmHg 65%
    01:00 +7°C° 0 mm 3 m/s 758 mmHg 67%
    02:00 +7°C° 0 mm 2 m/s 758 mmHg 70%
    03:00 +6°C° 0 mm 2 m/s 758 mmHg 72%
    04:00 +7°C° 0 mm 1 m/s 758 mmHg 74%
    05:00 +6°C° 0 mm 1 m/s 759 mmHg 75%
    06:00 +6°C° 0 mm 1 m/s 759 mmHg 74%
    07:00 +5°C° 0 mm 2 m/s 759 mmHg 73%
    08:00 +5°C° 0 mm 2 m/s 760 mmHg 72%
    09:00 +7°C° 0 mm 3 m/s 760 mmHg 64%
    10:00 +8°C° 0 mm 3 m/s 760 mmHg 55%
    11:00 +10°C° 0 mm 4 m/s 760 mmHg 46%
    12:00 +11°C° 0 mm 4 m/s 760 mmHg 44%
    13:00 +10°C° 0 mm 5 m/s 759 mmHg 43%
    14:00 +12°C° 0 mm 5 m/s 759 mmHg 41%
    15:00 +11°C° 0 mm 4 m/s 759 mmHg 43%
    16:00 +11°C° 0 mm 4 m/s 759 mmHg 44%
    17:00 +11°C° 0 mm 3 m/s 758 mmHg 46%
    18:00 +10°C° 0 mm 3 m/s 758 mmHg 49%
    19:00 +9°C° 0 mm 2 m/s 758 mmHg 52%
    20:00 +8°C° 0 mm 2 m/s 759 mmHg 54%
    21:00 +7°C° 0 mm 2 m/s 758 mmHg 56%
    22:00 +6°C° 0 mm 2 m/s 758 mmHg 58%
    23:00 +6°C° 0 mm 2 m/s 758 mmHg 59%

    22 Februarie, Vineri

    Timp Temperatura Precipitaţii Vânt Presiune Umiditate
    00:00 +6°C° 0 mm 2 m/s 758 mmHg 60%
    01:00 +7°C° 0 mm 1 m/s 757 mmHg 60%
    02:00 +7°C° 0 mm 1 m/s 757 mmHg 60%
    03:00 +7°C° 0.1 mm 1 m/s 756 mmHg 63%
    04:00 +7°C° 0.1 mm 1 m/s 755 mmHg 65%
    05:00 +7°C° 0.1 mm 1 m/s 755 mmHg 68%
    06:00 +6°C° 0.6 mm 1 m/s 754 mmHg 71%
    07:00 +6°C° 0.6 mm 1 m/s 754 mmHg 74%
    08:00 +5°C° 0.6 mm 2 m/s 754 mmHg 78%
    09:00 +6°C° 0.1 mm 2 m/s 753 mmHg 72%
    10:00 +7°C° 0.1 mm 2 m/s 753 mmHg 67%
    11:00 +9°C° 0.1 mm 1 m/s 753 mmHg 61%
    12:00 +9°C° 0 mm 2 m/s 753 mmHg 58%
    13:00 +10°C° 0 mm 3 m/s 752 mmHg 55%
    14:00 +11°C° 0 mm 4 m/s 752 mmHg 52%
    15:00 +8°C° 0.1 mm 7 m/s 753 mmHg 56%
    16:00 +3°C° 0.1 mm 10 m/s 754 mmHg 61%
    17:00 0°C° 0.1 mm 12 m/s 754 mmHg 65%
    18:00 -1°C° 0 mm 13 m/s 756 mmHg 64%
    19:00 -2°C° 0 mm 13 m/s 757 mmHg 63%
    20:00 -5°C° 0 mm 13 m/s 758 mmHg 62%
    21:00 -5°C° 0 mm 13 m/s 759 mmHg 57%
    22:00 -6°C° 0 mm 12 m/s 760 mmHg 53%
    23:00 -7°C° 0 mm 12 m/s 761 mmHg 49%

    23 Februarie, Sâmbătă

    Timp Temperatura Precipitaţii Vânt Presiune Umiditate
    00:00 -8°C° 0 mm 12 m/s 762 mmHg 47%
    01:00 -8°C° 0 mm 11 m/s 763 mmHg 46%
    02:00 -8°C° 0 mm 11 m/s 763 mmHg 44%
    03:00 -8°C° 0 mm 10 m/s 763 mmHg 44%
    04:00 -8°C° 0 mm 9 m/s 764 mmHg 44%
    05:00 -7°C° 0 mm 8 m/s 764 mmHg 43%
    06:00 -7°C° 0 mm 7 m/s 764 mmHg 42%
    07:00 -7°C° 0 mm 7 m/s 764 mmHg 41%
    08:00 -7°C° 0 mm 7 m/s 765 mmHg 40%
    09:00 -6°C° 0 mm 7 m/s 765 mmHg 38%
    10:00 -5°C° 0 mm 8 m/s 765 mmHg 36%
    11:00 -4°C° 0 mm 8 m/s 765 mmHg 34%
    12:00 -4°C° 0 mm 8 m/s 764 mmHg 34%
    13:00 -4°C° 0 mm 8 m/s 764 mmHg 35%
    14:00 -3°C° 0 mm 7 m/s 764 mmHg 36%
    15:00 -3°C° 0 mm 7 m/s 764 mmHg 37%
    16:00 -4°C° 0 mm 7 m/s 764 mmHg 38%
    17:00 -4°C° 0 mm 7 m/s 764 mmHg 39%
    18:00 -5°C° 0 mm 6 m/s 764 mmHg 43%
    19:00 -5°C° 0 mm 6 m/s 765 mmHg 46%
    20:00 -6°C° 0 mm 5 m/s 765 mmHg 50%
    21:00 -6°C° 0 mm 6 m/s 765 mmHg 50%
    22:00 -6°C° 0 mm 6 m/s 765 mmHg 51%
    23:00 -6°C° 0 mm 6 m/s 765 mmHg 51%

    24 Februarie, Duminică

    Timp Temperatura Precipitaţii Vânt Presiune Umiditate
    00:00 -6°C° 0 mm 6 m/s 765 mmHg 51%
    01:00 -6°C° 0 mm 6 m/s 765 mmHg 51%
    02:00 -6°C° 0 mm 6 m/s 765 mmHg 51%
    03:00 -8°C° 0 mm 6 m/s 765 mmHg 51%
    04:00 -8°C° 0 mm 6 m/s 765 mmHg 51%
    05:00 -8°C° 0 mm 6 m/s 765 mmHg 52%
    06:00 -8°C° 0 mm 6 m/s 765 mmHg 51%
    07:00 -8°C° 0 mm 7 m/s 765 mmHg 51%
    08:00 -8°C° 0 mm 7 m/s 766 mmHg 51%
    09:00 -7°C° 0 mm 8 m/s 766 mmHg 48%
    10:00 -6°C° 0 mm 8 m/s 766 mmHg 45%
    11:00 -5°C° 0 mm 9 m/s 766 mmHg 42%
    12:00 -5°C° 0 mm 9 m/s 765 mmHg 42%
    13:00 -4°C° 0 mm 9 m/s 765 mmHg 42%
    14:00 -4°C° 0 mm 9 m/s 765 mmHg 41%
    15:00 -4°C° 0 mm 9 m/s 765 mmHg 44%
    16:00 -5°C° 0 mm 9 m/s 765 mmHg 47%
    17:00 -5°C° 0 mm 8 m/s 765 mmHg 50%
    18:00 -6°C° 0 mm 8 m/s 765 mmHg 53%
    19:00 -6°C° 0 mm 7 m/s 765 mmHg 56%
    20:00 -7°C° 0 mm 7 m/s 765 mmHg 59%
    21:00 -7°C° 0 mm 7 m/s 765 mmHg 59%
    22:00 -6°C° 0 mm 6 m/s 765 mmHg 59%
    23:00 -6°C° 0 mm 6 m/s 765 mmHg 60%
    Arată mai mult